Williams, AZ

1:02 AM MST on December 13, 2017 (GMT -0700)
Williams

Weather History for KCMR - February, 2013

Change the Weather History Date:

Monday, February 11, 2013

  Actual Average (K40G) Record (K40G)
Temperature  
Mean Temperature 12 °F -  
Max Temperature 26 °F 47 °F 62 °F (1997)
Min Temperature -2 °F 35 °F 33 °F (1997)
Degree Days  
Heating Degree Days 53    
Moisture  
Dew Point 5 °F    
Average Humidity 79    
Maximum Humidity 93    
Minimum Humidity 59    
Precipitation  
Precipitation 0.04 in - - ()
Sea Level Pressure  
Sea Level Pressure 30.03 in    
Wind  
Wind Speed 7 mph (SSE)    
Max Wind Speed 10 mph    
Max Gust Speed -    
Visibility 10 miles    
Events      
Averages and records for this station are not official NWS values.
T = Trace of Precipitation, MM = Missing Value Source: NWS Daily Summary

Daily Weather History Graph

Daily Weather History Graph

Search for Another Location

Airport or City:

Trip Planner

Search our weather history database for the weather conditions in past years. The results will help you decide how hot, cold, wet, or windy it might be!

Date:

Astronomy

Feb. 11, 2013 Rise Set
Actual Time 7:18 AM MST 6:07 PM MST
Civil Twilight 6:52 AM MST 6:33 PM MST
Nautical Twilight 6:22 AM MST 7:03 PM MST
Astronomical Twilight 5:53 AM MST 7:33 PM MST
Moon 7:51 AM MST (2/11) 8:01 PM MST (2/11)
Length of Visible Light 11h 40m
Length of Day
10h 48m
Waxing Crescent, 3% of the Moon is Illuminated
Feb 11
Waxing Crescent
Feb 17
First Quarter
Feb 25
Full
Mar 4
Last Quarter
Mar 11
New

Hourly Weather History & Observations

Time (MST) Temp. Windchill Dew Point Humidity Pressure Visibility Wind Dir Wind Speed Gust Speed Precip Events Conditions
12:15 AM 1.4 °F -13.5 °F -0.4 °F 92% 29.98 in 10.0 mi SSE 9.2 mph - N/A   Clear
12:35 AM 1.4 °F -13.5 °F -2.2 °F 85% 29.98 in 10.0 mi SSE 9.2 mph - N/A   Clear
12:55 AM 1.4 °F -13.5 °F -2.2 °F 85% 29.98 in 10.0 mi SSE 9.2 mph - N/A   Clear
1:15 AM 1.4 °F -14.5 °F -2.2 °F 85% 29.98 in 10.0 mi SSE 10.4 mph - N/A   Clear
1:35 AM -0.4 °F -15.7 °F -2.2 °F 92% 29.98 in 10.0 mi SSE 9.2 mph - N/A   Clear
1:55 AM -0.4 °F -16.7 °F -2.2 °F 92% 29.98 in 10.0 mi SSE 10.4 mph - N/A   Clear
2:15 AM -0.4 °F -16.7 °F -2.2 °F 92% 29.98 in 10.0 mi SSE 10.4 mph - N/A   Clear
2:35 AM -0.4 °F -14.7 °F -4.0 °F 85% 29.99 in 10.0 mi SSE 8.1 mph - N/A   Clear
2:55 AM -0.4 °F -15.7 °F -4.0 °F 85% 29.98 in 10.0 mi SSE 9.2 mph - N/A   Clear
3:15 AM -0.4 °F -14.7 °F -2.2 °F 92% 29.98 in 10.0 mi SSE 8.1 mph - N/A   Partly Cloudy
3:35 AM -0.4 °F -15.7 °F -4.0 °F 85% 29.97 in 10.0 mi SSE 9.2 mph - N/A   Partly Cloudy
3:55 AM -0.4 °F -14.7 °F -4.0 °F 85% 29.97 in 10.0 mi SSE 8.1 mph - N/A   Clear
4:15 AM -0.4 °F -14.7 °F -4.0 °F 85% 29.97 in 10.0 mi SSE 8.1 mph - N/A   Clear
4:35 AM -0.4 °F -14.7 °F -5.8 °F 78% 29.96 in 10.0 mi SSE 8.1 mph - N/A   Clear
4:55 AM -0.4 °F -14.7 °F -4.0 °F 85% 29.96 in 10.0 mi SSE 8.1 mph - N/A   Unknown
5:15 AM -0.4 °F -14.7 °F -4.0 °F 85% 29.97 in 10.0 mi SSE 8.1 mph - N/A   Clear
5:35 AM -0.4 °F -15.7 °F -5.8 °F 78% 29.97 in 10.0 mi SSE 9.2 mph - N/A   Clear
5:55 AM -0.4 °F -16.7 °F -4.0 °F 85% 29.97 in 10.0 mi SSE 10.4 mph - N/A   Clear
6:15 AM -2.2 °F -18.0 °F -5.8 °F 85% 29.97 in 10.0 mi SSE 9.2 mph - N/A   Clear
6:35 AM -0.4 °F -14.7 °F -5.8 °F 78% 29.97 in 10.0 mi SSE 8.1 mph - N/A   Clear
6:55 AM -2.2 °F -15.6 °F -7.6 °F 78% 29.97 in 10.0 mi SSE 6.9 mph - N/A   Clear
7:15 AM -2.2 °F -18.0 °F -7.6 °F 78% 29.98 in 10.0 mi SSE 9.2 mph - N/A   Clear
7:35 AM -0.4 °F -14.7 °F -5.8 °F 78% 29.98 in 10.0 mi SSE 8.1 mph - N/A   Clear
7:55 AM -0.4 °F -14.7 °F -4.0 °F 85% 29.99 in 10.0 mi SSE 8.1 mph - N/A   Scattered Clouds
8:15 AM 1.4 °F -13.5 °F -0.4 °F 92% 29.99 in 10.0 mi SSE 9.2 mph - N/A   Overcast
8:35 AM 1.4 °F -9.9 °F -0.4 °F 92% 30.00 in 10.0 mi SSE 5.8 mph - N/A   Mostly Cloudy
8:55 AM 6.8 °F -4.8 °F 3.2 °F 85% 30.00 in 10.0 mi South 6.9 mph - N/A   Partly Cloudy
9:15 AM 8.6 °F -1.3 °F 5.0 °F 85% 30.01 in 10.0 mi South 5.8 mph - N/A   Clear
9:35 AM 10.4 °F 2.2 °F 8.6 °F 92% 30.01 in 10.0 mi SSE 4.6 mph - N/A   Clear
9:55 AM 15.8 °F - 12.2 °F 86% 30.01 in 10.0 mi Calm Calm - N/A   Clear
10:15 AM 19.4 °F - 15.8 °F 86% 30.02 in 10.0 mi Calm Calm - N/A   Clear
10:35 AM 23.0 °F - 14.0 °F 68% 30.02 in 10.0 mi Calm Calm - N/A   Clear
10:55 AM 24.8 °F - 15.8 °F 69% 30.02 in 10.0 mi Calm Calm - N/A   Clear
11:15 AM 26.6 °F - 14.0 °F 59% 30.03 in 10.0 mi Calm Calm - N/A   Clear
11:35 AM 24.8 °F 19.1 °F 15.8 °F 69% 30.03 in 10.0 mi North 4.6 mph - N/A   Partly Cloudy
11:55 AM 26.6 °F 16.8 °F 17.6 °F 69% 30.03 in 10.0 mi NNW 10.4 mph - N/A   Mostly Cloudy
12:15 PM 24.8 °F 16.9 °F 17.6 °F 74% 30.03 in 10.0 mi NNW 6.9 mph - N/A   Scattered Clouds
12:35 PM 26.6 °F 19.1 °F 15.8 °F 64% 30.03 in 10.0 mi NNW 6.9 mph - 0.01 in   Clear
12:55 PM 26.6 °F 20.0 °F 15.8 °F 64% 30.02 in 10.0 mi North 5.8 mph - 0.02 in   Clear
1:15 PM 26.6 °F 22.6 °F 14.0 °F 59% 30.02 in 10.0 mi NNW 3.5 mph - 0.01 in   Clear
1:35 PM 26.6 °F 17.5 °F 15.8 °F 64% 30.01 in 10.0 mi NNW 9.2 mph - 0.01 in   Clear
1:55 PM 26.6 °F 18.2 °F 14.0 °F 59% 30.01 in 10.0 mi NNW 8.1 mph - 0.01 in   Clear
2:15 PM 26.6 °F 17.5 °F 14.0 °F 59% 30.01 in 10.0 mi NNW 9.2 mph - 0.01 in   Clear
2:35 PM 26.6 °F 19.1 °F 14.0 °F 59% 30.02 in 10.0 mi NNW 6.9 mph - 0.01 in   Clear
2:55 PM 26.6 °F 17.5 °F 14.0 °F 59% 30.02 in 10.0 mi North 9.2 mph - 0.01 in   Partly Cloudy
3:55 PM 26.6 °F 19.1 °F 14.0 °F 59% 30.03 in 10.0 mi NNW 6.9 mph - N/A   Clear
4:15 PM 24.8 °F 15.3 °F 14.0 °F 64% 30.04 in 10.0 mi NW 9.2 mph - N/A   Clear
4:35 PM 24.8 °F 16.1 °F 12.2 °F 59% 30.04 in 10.0 mi NNW 8.1 mph - N/A   Clear
4:55 PM 24.8 °F 16.1 °F 12.2 °F 59% 30.04 in 10.0 mi North 8.1 mph - N/A   Clear
5:15 PM 24.8 °F 16.1 °F 12.2 °F 59% 30.05 in 10.0 mi NNW 8.1 mph - N/A   Clear
5:35 PM 23.0 °F 13.1 °F 14.0 °F 68% 30.06 in 10.0 mi NW 9.2 mph - N/A   Clear
5:55 PM 23.0 °F 14.7 °F 14.0 °F 68% 30.07 in 10.0 mi NNW 6.9 mph - N/A   Clear
6:15 PM 19.4 °F - 14.0 °F 80% 30.07 in 10.0 mi Calm Calm - N/A   Clear
6:35 PM 19.4 °F - 12.2 °F 74% 30.08 in 10.0 mi Calm Calm - N/A   Clear
6:55 PM 19.4 °F - 14.0 °F 80% 30.09 in 10.0 mi Calm Calm - N/A   Clear
7:15 PM 19.4 °F - 14.0 °F 80% 30.09 in 10.0 mi Calm Calm - N/A   Clear
7:35 PM 14.0 °F - 10.4 °F 86% 30.10 in 10.0 mi Calm Calm - N/A   Clear
7:55 PM 15.8 °F - 14.0 °F 93% 30.10 in 10.0 mi Calm Calm - N/A   Clear
8:15 PM 10.4 °F 0.8 °F 8.6 °F 92% 30.11 in 10.0 mi SSE 5.8 mph - N/A   Clear
8:35 PM 10.4 °F -0.4 °F 6.8 °F 85% 30.11 in 10.0 mi SSE 6.9 mph - N/A   Clear
8:55 PM 10.4 °F - 6.8 °F 85% 30.12 in 10.0 mi Calm Calm - N/A   Clear
9:15 PM 6.8 °F -5.9 °F 5.0 °F 92% 30.12 in 10.0 mi SSE 8.1 mph - N/A   Clear
9:35 PM 6.8 °F -5.9 °F 5.0 °F 92% 30.13 in 10.0 mi SSE 8.1 mph - N/A   Clear
9:55 PM 6.8 °F -5.9 °F 3.2 °F 85% 30.13 in 10.0 mi SSE 8.1 mph - N/A   Clear
10:15 PM 6.8 °F -4.8 °F 3.2 °F 85% 30.13 in 10.0 mi SSE 6.9 mph - N/A   Clear
10:35 PM 5.0 °F -6.9 °F 1.4 °F 85% 30.14 in 10.0 mi South 6.9 mph - N/A   Clear
10:55 PM 3.2 °F -9.1 °F -0.4 °F 85% 30.14 in 10.0 mi SSE 6.9 mph - N/A   Clear
11:15 PM 5.0 °F -6.9 °F -0.4 °F 78% 30.13 in 10.0 mi SSE 6.9 mph - N/A   Clear
11:35 PM 3.2 °F -9.1 °F -0.4 °F 85% 30.14 in 10.0 mi SSE 6.9 mph - N/A   Clear
11:55 PM 1.4 °F -6.2 °F -0.4 °F 92% 30.14 in 10.0 mi SSE 3.5 mph - N/A   Clear